Weather History for Whitefield, NH

Change the Weather History Date:

Tuesday, January 22, 2013

  Actual Average Record
Temperature  
Mean Temperature 7 °F -  
Max Temperature 14 °F 20 °F 46 °F (1997)
Min Temperature -2 °F 0 °F -22 °F (2005)
Degree Days  
Heating Degree Days 58    
Moisture  
Dew Point 1 °F    
Average Humidity 72    
Maximum Humidity 85    
Minimum Humidity 41    
Precipitation  
Precipitation 0.02 in - - ()
Sea Level Pressure  
Sea Level Pressure 29.81 in    
Wind  
Wind Speed 3 mph (WNW)    
Max Wind Speed 14 mph    
Max Gust Speed 23 mph    
Visibility 6 miles    
Events Snow    
Averages and records for this station are not official NWS values.
T = Trace of Precipitation, MM = Missing Value Source: NWS Daily Summary

Daily Weather History Graph

Daily Weather History Graph

Search for Another Location

Airport:

Trip Planner

Search our weather history database for the weather conditions in past years. The results will help you decide how hot, cold, wet, or windy it might be!

Date:

Astronomy

Jan. 22, 2013 Rise Set
Actual Time 7:13 AM EST 4:42 PM EST
Civil Twilight 6:42 AM EST 5:13 PM EST
Nautical Twilight 6:06 AM EST 5:49 PM EST
Astronomical Twilight 5:32 AM EST 6:23 PM EST
Moon 1:01 PM EST 3:34 AM EST
Length of Visible Light 10h 31m
Length of Day
9h 28m
Waxing Gibbous, 82% of the Moon is Illuminated
Jan 22
Waxing Gibbous
Jan 26
Full
Feb 3
Last Quarter
Feb 10
New
Feb 17
First Quarter

Hourly Weather History & Observations

Time (EST) Temp. Windchill Dew Point Humidity Pressure Visibility Wind Dir Wind Speed Gust Speed Precip Events Conditions
12:52 AM 5.0 °F -2.1 °F 1.0 °F 84% 29.78 in 10.0 mi SSE 3.5 mph - N/A   Overcast
1:52 AM 7.0 °F - 3.0 °F 84% 29.78 in 3.0 mi Calm Calm - 0.00 in Snow Light Snow
2:33 AM 10.4 °F 4.0 °F 5.0 °F 79% 29.71 in 2.5 mi NNE 3.5 mph - 0.00 in Snow Light Snow
2:52 AM 10.0 °F 3.6 °F 6.1 °F 84% 29.77 in 2.0 mi North 3.5 mph - 0.00 in Snow Light Snow
3:17 AM 10.4 °F - 5.0 °F 79% 29.70 in 1.8 mi Calm Calm - 0.00 in Snow Light Snow
3:25 AM 8.6 °F 2.0 °F 5.0 °F 85% 29.70 in 2.5 mi NNW 3.5 mph - 0.00 in Snow Light Snow
3:38 AM 8.6 °F 2.0 °F 5.0 °F 85% 29.70 in 3.0 mi North 3.5 mph - 0.00 in Snow Light Snow
3:52 AM 9.0 °F - 3.9 °F 80% 29.77 in 3.0 mi Calm Calm - 0.00 in Snow Light Snow
4:17 AM 8.6 °F - 5.0 °F 85% 29.70 in 4.0 mi Calm Calm - 0.00 in Snow Light Snow
4:27 AM 8.6 °F - 3.2 °F 79% 29.70 in 3.0 mi Calm Calm - 0.00 in Snow Light Snow
4:40 AM 8.6 °F - 3.2 °F 79% 29.71 in 2.5 mi Calm Calm - 0.00 in Snow Light Snow
4:52 AM 9.0 °F - 5.0 °F 84% 29.78 in 1.8 mi Calm Calm - 0.00 in Snow Light Snow
5:00 AM 8.6 °F - 5.0 °F 85% 29.71 in 1.5 mi Calm Calm - 0.01 in Snow Light Snow
5:32 AM 8.6 °F - 3.2 °F 79% 29.72 in 2.0 mi Calm Calm - 0.01 in Snow Light Snow
5:41 AM 8.6 °F - 3.2 °F 79% 29.72 in 4.0 mi Calm Calm - 0.01 in Snow Light Snow
5:52 AM 9.0 °F - 3.9 °F 80% 29.79 in 4.0 mi Calm Calm - 0.01 in Snow Light Snow
6:16 AM 8.6 °F - 5.0 °F 85% 29.73 in 2.5 mi Calm Calm - 0.01 in Snow Light Snow
6:26 AM 8.6 °F - 5.0 °F 85% 29.73 in 1.2 mi Calm Calm - 0.01 in Snow Light Snow
6:36 AM 8.6 °F - 5.0 °F 85% 29.73 in 3.0 mi Calm Calm - 0.01 in Snow Light Snow
6:52 AM 9.0 °F - 5.0 °F 84% 29.81 in 2.0 mi Calm Calm - 0.01 in Snow Light Snow
7:20 AM 8.6 °F - 3.2 °F 79% 29.75 in 4.0 mi Calm Calm - 0.00 in Snow Light Snow
7:40 AM 8.6 °F - 5.0 °F 85% 29.75 in 2.5 mi Calm Calm - 0.00 in Snow Light Snow
7:52 AM 9.0 °F - 5.0 °F 84% 29.82 in 1.2 mi Calm Calm - 0.00 in Snow Light Snow
8:03 AM 8.6 °F - 5.0 °F 85% 29.75 in 3.0 mi Calm Calm - 0.00 in Snow Light Snow
8:19 AM 8.6 °F - 5.0 °F 85% 29.76 in 9.0 mi Calm Calm - 0.00 in   Overcast
8:52 AM 10.0 °F 3.6 °F 3.9 °F 76% 29.83 in 10.0 mi West 3.5 mph - 0.00 in   Overcast
9:52 AM 12.0 °F 4.1 °F 5.0 °F 73% 29.83 in 10.0 mi Variable 4.6 mph - N/A   Mostly Cloudy
10:16 AM 12.2 °F 2.9 °F 5.0 °F 73% 29.77 in 10.0 mi WSW 5.8 mph - N/A   Mostly Cloudy
10:52 AM 12.9 °F -0.2 °F 3.0 °F 65% 29.85 in 10.0 mi West 10.4 mph - N/A   Overcast
11:22 AM 12.2 °F -1.0 °F 1.4 °F 62% 29.77 in 10.0 mi West 10.4 mph - N/A   Mostly Cloudy
11:36 AM 14.0 °F 0.5 °F 1.4 °F 57% 29.77 in 10.0 mi West 11.5 mph - N/A   Mostly Cloudy
11:52 AM 12.9 °F -1.6 °F 1.9 °F 62% 29.84 in 10.0 mi WNW 12.7 mph - N/A   Overcast
12:42 PM 14.0 °F 1.2 °F 1.4 °F 57% 29.76 in 10.0 mi West 10.4 mph - N/A   Overcast
12:52 PM 12.9 °F -0.9 °F -0.0 °F 56% 29.84 in 10.0 mi WNW 11.5 mph - N/A   Overcast
1:52 PM 12.0 °F -2.0 °F 1.9 °F 64% 29.84 in 10.0 mi WNW 11.5 mph - N/A   Overcast
3:52 PM 10.9 °F -2.6 °F -4.0 °F 51% 29.89 in 10.0 mi WNW 10.4 mph - 0.00 in   Mostly Cloudy
4:52 PM 8.1 °F -5.3 °F -2.0 °F 64% 29.94 in 10.0 mi NW 9.2 mph - 0.00 in   Mostly Cloudy
5:52 PM 7.0 °F 0.1 °F -7.1 °F 53% 29.96 in 10.0 mi West 3.5 mph - N/A   Overcast
6:52 PM 5.0 °F -9.1 °F -9.0 °F 52% 29.99 in 10.0 mi WNW 9.2 mph - N/A   Clear
7:52 PM 3.9 °F -13.0 °F -9.9 °F 53% 30.01 in 10.0 mi West 12.7 mph 19.6 mph N/A   Partly Cloudy
8:52 PM 1.9 °F -16.2 °F -15.0 °F 45% 30.01 in 10.0 mi WNW 13.8 mph 23.0 mph N/A   Clear
9:52 PM -0.0 °F -14.2 °F -18.9 °F 41% 30.02 in 10.0 mi WNW 8.1 mph - N/A   Clear
10:52 PM -0.9 °F -16.4 °F -18.0 °F 44% 30.04 in 10.0 mi West 9.2 mph - N/A   Clear
11:52 PM -2.0 °F -21.2 °F -16.1 °F 51% 30.04 in 10.0 mi West 13.8 mph 19.6 mph N/A   Clear